This demonstration page uses our WeatherBlox Daily Observations layout. Learn more.

Left ArrowRight Arrow

30.21309, -93.2044

Hourly Observations for November 30, 2022

Temp ( °F °C ) Dew Point ( °F °C ) Humidity (%) Winds ( mph kmh ) Pressure ( in mb ) Visibility ( mi km ) Precip ( " mm )
12:15 am 00:15 Cloudy 74 23.6 72 22.2 92 92 WSW 18 30 29.92 1013 7 11 0.00 0.00
12:35 am 00:35 Cloudy 74 23.5 72 22.1 92 92 WSW 14 22 29.93 1014 7 11 0.00 0.00
12:55 am 00:55 Cloudy with Mist and Fog 74 23.5 72 22 91 91 W 10 17 29.94 1014 7 11 0.00 0.00
1:15 am 01:15 Cloudy with Mist and Fog 74 23.4 71 21.9 91 91 W 10 17 29.94 1014 7 11 0.00 0.00
1:35 am 01:35 Mostly Cloudy 74 23.3 71 21.6 90 90 W 9 15 29.94 1014 7 11 0.00 0.00
1:55 am 01:55 Partly Cloudy 74 23.1 70 21.3 90 90 WSW 9 15 29.94 1014 7 11 0.00 0.00
2:15 am 02:15 Clear with Mist and Fog 73 23 70 21.3 90 90 W 8 13 29.95 1014 7 11 0.00 0.00
2:35 am 02:35 Partly Cloudy with Mist and Fog 73 22.7 70 21.1 91 91 W 8 13 29.95 1014 7 11 0.00 0.00
2:55 am 02:55 Mostly Cloudy with Nearby Thunderstorms 73 22.7 70 21.1 91 91 W 8 13 29.96 1015 7 11 0.00 0.00
3:15 am 03:15 Cloudy with Mist and Fog 73 22.7 70 21.2 91 91 W 8 13 29.96 1015 5 8 0.00 0.00
3:35 am 03:35 Cloudy with Mist and Fog 73 22.9 70 21 89 89 W 7 11 29.97 1015 5 8 0.00 0.00
3:55 am 03:55 Mostly Cloudy with Mist and Fog 73 22.6 69 20.7 89 89 WNW 8 13 29.97 1015 7 11 0.00 0.00
4:15 am 04:15 Mostly Cloudy with Mist and Fog 73 22.5 69 20.7 90 90 WNW 10 17 29.98 1015 5 8 0.00 0.00
4:35 am 04:35 Cloudy with Mist and Fog 73 22.5 69 20.6 89 89 WNW 9 15 29.99 1016 5 8 0.00 0.00
4:55 am 04:55 Cloudy with Mist and Fog 73 22.5 69 20.5 88 88 NW 12 19 29.99 1016 7 11 0.00 0.00
5:15 am 05:15 Cloudy with Mist and Fog 72 22.2 69 20.4 90 90 NW 10 17 30.00 1016 7 11 0.00 0.00
5:35 am 05:35 Mostly Cloudy with Mist and Fog 71 21.8 68 20 90 90 NW 10 17 30.01 1016 7 11 0.00 0.00
6:00 am 06:00 Mostly Cloudy 68 20 63 17 83 83 NNW 20 31 30.04 1017 10 16 0.00 0.00
6:47 am 06:47 Clear 61 16 50 10 68 68 NNW 16 26 30.09 1019 10 16 0.00 0.00
7:47 am 07:47 Sunny 59 15 45 7 59 59 N 20 31 30.15 1021 10 16 0.00 0.00
8:45 am 08:45 Sunny 57 14 45 7 63 63 NNE 21 33 30.20 1023 10 16 0.00 0.00
9:55 am 09:55 Sunny 61 16 43 6 51 51 NNE 21 33 30.24 1024 10 16 0.00 0.00
10:49 am 10:49 Sunny 61 16 43 6 51 51 NE 18 30 30.25 1024 10 16 0.00 0.00
11:55 am 11:55 Sunny 63 17 41 5 45 45 NNE 16 26 30.26 1025 10 16 0.00 0.00
12:55 pm 12:55 Sunny 63 17 37 3 39 39 NNE 16 26 30.25 1024 10 16 0.00 0.00
1:50 pm 13:50 Sunny 64 18 37 3 37 37 NE 14 22 30.25 1024 10 16 0.00 0.00
2:50 pm 14:50 Sunny 63 17 34 1 34 34 NE 17 28 30.26 1025 10 16 0.00 0.00
3:54 pm 15:54 Sunny 63 17 32 0 32 32 NNE 15 24 30.27 1025 10 16 0.00 0.00
4:49 pm 16:49 Sunny 57 14 30 -1 36 36 NNE 10 17 30.29 1026 10 16 0.00 0.00
5:58 pm 17:58 Clear 55 13 30 -1 38 38 NNE 10 17 30.32 1027 10 16 0.00 0.00
6:51 pm 18:51 Clear 54 12 30 -1 40 40 NNE 15 24 30.34 1027 10 16 0.00 0.00
8:55 pm 20:55 Clear 48 9 34 1 57 57 NE 9 15 30.36 1028 10 16 0.00 0.00
9:47 pm 21:47 Clear 46 8 34 1 61 61 NE 12 19 30.36 1028 10 16 0.00 0.00
10:15 pm 22:15 Clear 46 7.8 33 0.8 61 61 NE 9 15 30.37 1028 10 16 0.00 0.00
10:35 pm 22:35 Clear 46 7.6 33 0.8 62 62 NE 10 17 30.37 1028 10 16 0.00 0.00
10:55 pm 22:55 Clear 45 7.2 33 0.8 64 64 ENE 9 15 30.37 1028 10 16 0.00 0.00
11:15 pm 23:15 Clear 44 6.9 33 0.7 65 65 NE 8 13 30.37 1028 10 16 0.00 0.00
11:35 pm 23:35 Clear 44 6.7 33 0.6 65 65 NE 10 17 30.37 1028 10 16 0.00 0.00
11:55 pm 23:55 Clear 44 6.4 33 0.5 66 66 ENE 7 11 30.36 1028 10 16 0.00 0.00

Powered by AerisWeather